ATLAS AGENA B DEB, 630

Orbit data source: Space-Track

ATLAS AGENA B DEB, 630 is space debris in LEO originally from a launch on Fri, 19 Jul 1963 UTC launched from the Air Force Western Test Range (AFWTR). Debris objects in space refer to the collection of defunct objects orbiting the Earth. Examples of debris include non-operational satellites, rocket bodies, and fragments generated from explosions, collisions, or faulty payload assembly.

Loading next visibility...
Identifier
630, 1963-030C
Orbit
LEO
Last TLE update
3 days ago
Origin
Manufacturer
Unknown
Mission
Spacecraft
Bus & Motor
Unknown
Mass
~10 kg wet, ~10 kg dry
Launch date (UTC)
1963-07-19 (62 years ago)
Launch vehicle
Unknown
Launch site
Air Force Western Test Range (AFWTR)
Object type
Payload
Rocket body
Debris
Shape & HBR
Box, 1.5 m
Radar Cross Section
1.575 m², Medium (>0.1 m² and < 1m²)

Expand to show TLE details & history

TLE from 3 days ago
0 ATLAS AGENA B DEB
1 00630U 63030C   25179.05238117  .00000002  00000-0 -85218-4 0  9993
2 00630  88.4313 222.3975 0048777 243.4191 116.1657  8.59860144944396
Epoch: 2025-06-28T01:15Z
TLE epoch observation values (Epoch: 2025-06-28T01:15:25.733Z)
Latitude
0.00006°
Longitude
-72.85615°
Altitude
3,710.182 km
Speed
6.28 km/s
True Right ascension
14h 49m 35s
True Declination
0° 00' 00"
Sunlit
Object was in daylight at epoch
Visualization orbit readout
Latitude
59.91197°
Longitude
104.26968°
Altitude
3,720.676 km
Speed
6.28 km/s
Apparent Right ascension
03h 53m 55s
Apparent Declination
26° 16' 10"
Sunlit
Object is in daylight
Visualization observer readout
Local Sidereal Time
17:12:31
Azimuth
18.889° NNE
Elevation
-21.329°
Doppler factor
1
Orbital elements
Apogee altitude
3,733.06 km
Perigee altitude
3,634.9 km
Semi-major axis
10,062.117 km
Eccentricity
0.00488
Inclination
88.4313°
RAAN
222.3975°
Arg. of periapsis
243.4191°
True anomaly
Unknown
Mean anomaly
116.1657°
Eccentric anomaly
Unknown
Mean motion
2.15035 °/min
Orbital period
167.41 mins
BSTAR
-0.000085218
Loading maneuver chart data...
Loading SW <> Apogee altitude chart data...
Loading historical data...
Loading historical data...
Loading historical data...
Loading historical data...
Loading historical data...
Loading historical data...
Loading historical data...

ATLAS AGENA B DEB Visibility forecast

Observer location: undefined°, undefined°

Span
Click to sort rows by Start time (UTC) header in descending order
Start Az.
Max El. time (UTC)
Max El. Az.
Max El.
End time (UTC)
End Az.
9 mins2025-07-01 11:06:52.659Z30.923° NE2025-07-01 11:11:52.659Z47.297° ENE11.252°2025-07-01 11:15:52.659Z60.423° ENE
36 mins2025-07-01 13:48:52.659Z4.203° NNE2025-07-01 14:06:52.659Z86.652° E41.204°2025-07-01 14:24:52.659Z162.55° S
31 mins2025-07-01 16:36:52.659Z350.192° N2025-07-01 16:51:52.659Z293.45° NW33.111°2025-07-01 17:07:52.659Z230.532° WSW
25 mins2025-07-02 00:21:52.659Z102.853° ESE2025-07-02 00:33:52.659Z60.05° ENE23.362°2025-07-02 00:46:52.659Z14.392° NNE
37 mins2025-07-02 02:59:52.659Z176.755° S2025-07-02 03:17:52.659Z314.654° NW44.944°2025-07-02 03:36:52.659Z0.645° NNE
|